Lapse_Rate
7.0 7.6 9.0 9.3 9.2 9.2 9.4 9.4 9.3 9.3 9.4 9.4 9.2 9.5 9.4 9.5 9.4 8.2 5.9 5.6 6.3 4.5 5.3 4.7 6.0 5.7 5.3 4.8 6.5 4.9 5.9 5.9 6.1 6.5 6.5 6.5 6.5 6.5 6.5 6.5 6.5 6.5 6.5 6.5 6.5 6.5 6.5 6.5 6.4 6.5 6.5 6.7 6.9 6.9
7.1 8.2 9.3 9.3 9.4 9.3 9.3 9.3 9.4 9.4 9.4 9.4 9.4 9.4 9.5 9.4 9.3 9.1 5.1 5.6 6.2 6.4 4.7 5.1 5.3 5.5 5.7 5.8 6.2 6.4 5.3 5.7 5.7 6.5 6.5 6.5 6.5 6.5 6.5 6.5 6.5 6.5 6.5 6.5 6.5 6.5 6.5 6.6 6.6 6.9 6.6 6.8 6.6 6.8
6.9 9.0 9.2 9.3 9.2 9.3 9.3 9.3 9.4 9.4 9.3 9.3 9.3 9.3 9.3 9.3 9.2 9.1 5.9 5.3 6.4 6.4 3.9 3.9 3.1 4.7 3.9 4.5 5.8 6.0 5.6 6.3 5.7 4.9 5.8 6.5 6.5 6.5 6.5 6.5 6.5 6.5 6.5 6.5 6.5 6.5 6.5 6.5 6.2 6.4 6.0 6.3 5.9 5.8
7.2 9.2 9.3 9.2 9.3 9.2 9.3 9.4 9.4 9.4 9.3 9.3 9.2 9.2 9.2 9.2 9.3 8.9 6.1 5.6 6.6 5.6 5.2 3.7 4.2 4.4 5.3 4.8 5.8 6.4 6.7 7.0 6.3 6.4 6.5 6.5 6.5 5.5 6.5 6.5 6.5 6.4 6.4 6.5 6.5 6.5 6.3 6.4 6.9 6.1 6.4 6.2 6.1 5.7
6.9 8.7 9.3 9.1 9.2 9.3 9.3 9.3 9.1 9.4 9.3 9.3 9.2 9.2 9.2 9.3 8.6 5.1 4.5 5.9 6.0 5.6 5.1 4.6 3.4 3.9 4.3 5.0 6.0 6.1 5.9 6.3 6.5 6.5 6.5 6.5 6.4 6.3 6.5 6.5 6.5 6.6 6.5 6.5 6.5 6.4 6.5 6.4 6.5 6.4 6.3 6.2 6.4 5.9
8.5 9.5 8.7 9.2 9.2 9.3 8.3 7.5 7.8 8.0 8.4 9.2 9.2 9.2 8.2 8.1 7.2 6.5 3.2 3.4 5.2 5.4 2.3 6.4 3.0 2.4 4.7 5.6 6.0 6.2 6.3 6.4 6.4 6.3 6.2 6.0 6.1 6.5 6.5 6.5 6.6 6.4 5.5 6.7 6.4 6.7 6.8 6.7 7.2 7.2 6.6 6.5 6.9 6.9
8.5 8.4 9.2 9.2 9.2 8.0 7.2 7.1 7.0 7.2 7.3 7.9 8.5 7.5 7.7 7.6 5.4 5.4 6.8 5.1 6.2 3.6 4.6 6.1 6.4 4.7 4.1 4.1 4.3 6.0 6.5 6.5 6.2 6.4 6.5 6.5 6.5 6.6 6.5 6.5 6.5 6.7 5.0 6.4 6.5 7.0 6.0 7.0 7.3 7.4 6.9 7.0 7.6 7.2
8.7 8.9 9.1 9.2 8.1 7.2 7.2 6.7 6.9 7.0 7.1 7.1 7.0 7.0 7.1 7.2 6.0 4.4 4.6 7.1 6.3 4.1 6.1 6.5 6.5 5.3 4.9 5.7 6.1 4.8 6.0 6.1 6.6 6.5 6.5 6.5 6.3 6.2 6.5 6.5 6.7 6.6 6.4 6.7 6.7 6.6 7.5 7.9 7.4 7.6 7.4 6.9 6.5 7.0
8.4 8.7 9.1 8.7 7.6 7.2 6.9 6.6 6.8 6.9 6.9 6.6 6.1 6.1 4.0 2.7 2.5 2.8 7.3 6.6 6.2 5.4 3.0 5.0 6.5 6.5 5.6 5.9 6.4 6.5 6.1 6.5 5.9 6.5 6.5 6.4 6.5 6.5 6.5 6.6 6.6 6.7 6.7 6.7 6.8 6.7 6.6 6.7 6.7 6.7 6.5 6.4 6.6 6.5
9.5 9.0 9.1 7.8 7.3 7.1 6.6 6.6 6.8 6.8 6.7 5.3 3.1 0.8 0.6 1.4 5.0 6.6 2.5 1.2 1.4 1.4 1.7 6.0 5.9 6.5 6.5 6.5 6.5 6.6 5.6 6.5 6.5 6.5 6.6 6.5 6.5 6.7 6.7 6.7 6.5 6.4 6.3 6.6 6.7 6.7 6.8 6.8 6.7 6.7 6.6 6.2 6.0 5.5
8.9 9.1 8.2 7.3 7.2 6.9 6.4 6.6 6.8 6.5 5.2 3.2 2.9 1.2 2.1 3.3 0.8 -1.5 -0.5 3.3 2.0 5.2 4.6 5.9 5.0 6.6 6.6 6.5 6.5 6.6 6.5 6.5 6.5 6.5 6.5 6.5 6.5 6.5 6.7 6.6 6.5 6.3 6.5 6.5 6.5 6.6 6.6 6.6 6.6 6.5 5.9 5.7 5.8 5.5
8.6 8.9 8.5 7.2 6.9 6.5 6.5 6.5 6.5 3.0 0.9 4.5 5.7 2.1 0.7 -0.5 -1.5 5.7 6.5 4.9 6.3 6.5 5.7 5.5 6.4 6.8 6.7 6.6 6.5 6.2 6.5 6.5 6.5 5.9 6.5 6.5 6.5 6.7 6.6 6.4 5.9 6.0 5.8 5.5 5.1 5.2 5.8 5.9 5.4 5.2 4.5 3.8 3.6 4.1
8.2 8.4 8.1 6.8 6.8 6.4 6.4 6.3 6.2 5.4 4.3 1.7 -0.6 -1.3 1.7 1.4 6.5 6.5 6.5 6.5 6.5 5.1 4.5 6.6 6.5 6.7 6.8 6.9 6.5 6.5 6.5 6.5 6.2 6.5 6.5 6.5 6.7 6.7 6.5 6.3 5.0 4.3 4.2 4.3 4.3 4.2 4.2 4.1 3.7 3.5 3.6 3.7 3.7 3.1
8.5 8.4 7.2 6.6 6.2 6.4 6.1 5.8 5.4 3.6 0.6 -2.0 -0.3 6.5 6.3 6.5 6.5 6.5 6.5 6.4 4.6 2.6 6.2 6.9 6.8 6.7 6.9 6.5 6.5 6.5 6.5 6.4 6.5 6.5 6.5 6.5 6.7 6.6 6.1 5.5 4.8 4.7 4.4 4.1 4.5 4.6 4.0 3.7 3.5 3.2 3.1 3.3 2.6 2.2
8.7 7.4 6.2 6.2 6.1 6.2 5.6 5.1 4.6 1.5 -0.1 -0.9 0.5 6.5 6.5 3.0 1.1 4.3 2.9 3.8 6.0 6.8 6.7 6.8 6.6 6.9 6.5 6.5 6.5 6.5 6.5 6.5 6.5 6.5 6.5 6.8 6.7 6.6 6.3 5.9 5.1 4.8 4.5 4.0 4.0 3.6 3.5 3.3 2.7 2.5 2.6 2.6 2.9 2.9
8.5 6.3 5.7 6.2 6.1 5.4 4.5 2.9 1.4 -0.1 -3.2 -0.4 0.7 3.8 3.3 3.4 2.6 2.8 3.9 5.4 6.3 7.2 6.9 6.9 6.3 6.5 6.5 6.5 6.5 6.5 6.5 6.5 6.5 6.6 7.0 6.6 6.3 6.1 6.0 5.9 5.2 4.7 4.1 3.9 3.7 3.8 3.4 2.7 2.5 2.7 2.5 2.5 2.5 2.5
8.0 5.8 6.7 6.0 5.6 4.1 2.8 -0.8 -2.1 -3.7 -1.6 -0.7 1.2 4.0 5.1 4.0 4.7 4.9 6.8 6.8 7.4 6.9 6.5 5.1 6.5 6.5 6.4 6.5 6.5 6.5 6.5 6.5 6.9 6.9 6.9 6.2 5.9 5.4 5.2 5.3 5.1 4.6 3.8 3.6 3.2 3.1 3.3 3.6 3.4 2.7 1.9 2.4 2.2 2.1
6.5 6.0 5.6 5.8 4.2 2.5 -1.2 -4.6 -3.1 -1.4 1.1 -1.9 3.4 3.2 4.8 6.7 6.1 6.6 5.9 5.8 6.8 7.1 5.8 6.3 5.4 6.5 6.5 6.5 6.5 6.5 6.8 6.4 6.5 6.9 6.3 5.5 5.2 5.2 5.2 4.8 4.5 4.2 3.7 3.5 3.0 3.0 2.9 2.7 2.8 3.4 3.0 2.5 2.5 2.2
7.0 5.8 5.4 4.3 2.1 -3.1 -2.7 -2.6 -3.5 0.1 -0.1 0.5 4.7 4.0 4.8 6.4 6.9 5.9 6.2 6.3 7.2 6.6 4.5 3.3 6.5 6.5 6.5 6.8 6.7 7.0 7.1 7.1 6.8 6.4 5.1 4.4 4.2 4.3 4.4 4.5 4.2 3.4 2.9 2.5 2.3 2.1 2.4 2.6 3.0 3.2 3.6 2.8 2.3 2.3
6.0 5.3 4.8 2.0 1.5 -3.6 -2.0 -3.1 -6.2 -1.1 0.8 1.3 2.6 2.6 6.2 7.1 6.6 6.3 6.7 6.4 6.4 5.7 5.1 6.3 6.6 6.9 6.9 6.3 6.4 6.8 6.6 6.7 6.4 5.9 5.8 5.0 4.3 3.3 3.3 3.1 2.8 3.1 2.1 2.1 2.3 4.4 2.5 2.8 3.2 3.2 3.9 4.2 2.7 2.5
3.7 3.9 2.4 0.3 -6.2 -6.2 -5.3 -7.3 -3.9 -2.1 -3.3 3.0 2.9 3.4 4.7 4.7 6.3 5.2 4.4 5.9 4.9 6.2 6.4 7.0 7.1 6.5 5.8 4.6 4.8 5.4 5.2 5.2 4.5 4.7 4.8 4.7 4.4 3.7 3.2 2.9 2.5 2.5 0.9 0.8 0.6 1.1 2.3 1.9 2.5 3.3 0.5 2.4 3.2 2.2
3.2 3.2 -3.4 -2.3 -4.5 -5.6 -4.1 -7.5 -3.7 -4.5 -2.3 -1.5 3.0 3.1 1.6 3.0 5.8 5.9 6.4 5.4 6.6 7.1 7.2 6.7 6.1 5.7 4.8 3.7 3.6 3.3 4.2 3.9 3.5 4.5 4.6 4.6 4.0 3.6 3.0 2.9 1.9 -0.1 0.8 0.8 0.8 1.1 1.3 1.9 3.7 2.6 2.1 2.8 2.3 2.0
2.9 1.3 -4.3 -4.8 -0.7 -1.3 0.5 -6.5 -1.2 -4.2 2.5 1.2 -1.2 4.8 4.5 3.2 4.6 4.4 5.4 6.1 6.6 6.5 6.5 6.1 5.1 4.5 4.0 4.2 3.9 3.2 2.9 2.8 2.1 2.3 2.4 1.9 1.9 3.1 3.2 2.8 2.4 1.2 1.0 1.5 1.6 1.4 1.0 4.0 2.6 3.5 1.7 1.4 1.5 1.9
0.0 -4.7 -3.8 -4.0 -3.6 2.0 -3.3 -2.8 -2.7 -2.2 -3.1 1.8 5.7 6.5 6.1 4.5 3.5 4.8 6.5 6.0 6.0 5.7 5.3 5.4 5.5 5.4 4.9 3.8 2.5 2.1 1.9 2.4 1.8 1.4 1.1 2.0 2.3 1.3 2.2 2.5 2.6 2.2 2.6 2.1 0.9 0.7 0.8 0.6 3.1 1.2 1.0 -0.4 0.6 0.4
0.9 1.5 -0.9 0.5 -3.9 0.7 6.3 5.2 2.3 3.7 6.5 6.1 6.5 6.5 4.1 1.0 6.5 6.5 6.5 5.8 5.2 4.6 4.4 4.4 4.2 4.1 2.7 2.2 2.4 1.8 1.1 1.5 1.4 0.9 0.7 0.5 -0.2 0.4 1.8 2.2 2.4 1.7 1.4 -0.9 0.4 0.9 1.0 0.9 0.8 0.8 1.2 0.9 2.2 2.1
6.5 1.7 2.1 2.8 1.8 5.2 5.8 6.5 6.5 6.5 6.5 6.5 5.8 -0.2 -2.8 5.2 6.5 6.5 6.4 4.4 3.5 3.4 3.1 2.7 3.1 2.9 2.2 2.1 1.6 1.2 0.6 -0.2 0.1 0.8 0.8 0.3 -0.4 -0.5 -0.8 -0.4 -0.4 0.5 1.4 0.6 -1.9 -0.7 0.4 1.1 0.6 0.7 1.4 1.8 4.3 1.9
6.5 4.3 3.9 5.4 4.0 3.4 4.4 4.1 4.1 3.8 6.5 6.5 5.6 5.0 6.5 6.5 6.5 6.1 4.6 3.1 2.7 1.6 1.7 1.7 1.8 1.8 1.3 0.9 0.5 -0.4 -1.3 -2.3 -1.7 -1.0 -1.5 -1.2 -0.8 -1.3 -1.4 -2.1 -2.0 0.7 0.9 0.7 0.5 0.4 1.0 1.7 1.7 1.6 1.7 2.1 2.1 1.3
4.1 4.5 6.3 2.3 1.9 1.1 3.7 3.9 6.0 6.5 5.1 4.4 4.8 6.5 6.5 6.5 6.5 4.7 3.8 2.1 1.1 -0.0 -0.6 -1.1 -1.3 -1.5 -1.6 -2.0 -3.1 -3.7 -4.8 -5.4 -5.8 -5.1 -4.0 -3.4 -4.6 -5.0 -3.6 -2.7 -1.2 3.3 3.6 0.9 2.8 0.4 0.3 1.4 1.6 1.7 2.2 2.0 2.1 1.6
3.4 5.3 5.2 2.8 1.0 0.4 0.8 2.7 3.0 3.9 4.4 3.3 3.7 6.3 2.3 2.9 0.6 1.7 3.0 1.6 -0.4 -0.0 0.1 -0.3 -1.3 -4.4 -4.4 -5.0 -5.3 -5.3 -6.3 -6.4 -2.2 -1.9 -1.1 -1.2 -1.8 -1.6 -5.3 -4.0 -2.9 -1.4 -1.0 -3.0 2.9 3.6 3.2 4.0 1.6 1.8 0.1 1.4 2.0 1.8
3.4 4.6 4.1 1.6 4.6 6.5 2.4 1.8 0.8 -0.3 1.6 1.2 1.3 1.5 2.3 1.2 -0.3 0.6 1.7 0.8 0.9 0.6 -1.6 -3.2 -4.4 -4.9 -2.9 -3.2 -3.1 -2.9 -6.2 -7.8 -5.8 -2.9 -3.1 -2.9 -2.7 -3.1 -3.2 -3.2 -2.0 -0.7 -0.7 -1.7 -1.7 -2.5 1.6 0.2 -1.0 -2.6 -1.7 -0.7 0.3 1.6
1.5 1.5 2.1 1.8 2.3 0.7 -0.1 -0.8 -0.7 1.1 -1.8 -2.5 -3.1 -0.6 0.8 -1.4 -0.6 -0.7 -0.7 -1.8 -2.4 -4.4 -3.9 -4.1 -4.9 -7.4 -5.6 -5.7 -5.4 -4.5 -3.0 -6.0 -8.6 -7.5 -7.7 -6.7 -5.2 -3.9 -2.4 -1.8 0.1 0.4 -0.1 -1.6 -2.8 -4.2 -3.9 -3.7 -3.8 -3.5 -2.5 -2.1 -1.7 -0.6
0.4 -0.2 1.5 5.2 2.3 0.7 -0.1 -0.5 -1.4 -0.8 -2.2 -0.7 -0.7 -3.5 -2.4 -0.8 0.6 -1.6 -3.5 -5.1 -5.1 -2.9 -0.6 -3.7 -5.2 -3.3 -4.8 -5.4 -7.2 -7.3 0.4 -5.3 -6.3 -6.6 -6.9 -4.3 -2.4 -0.3 1.2 1.7 2.0 1.4 -1.7 -3.0 -4.9 -5.0 -4.6 -4.3 -3.8 -3.2 -2.8 -3.0 -2.9 -3.1
-2.1 -1.8 -0.9 0.2 1.8 2.5 2.3 2.2 1.6 0.9 0.7 0.2 -0.5 -2.3 -2.8 -0.3 1.2 -1.3 -5.5 -6.5 -4.2 -3.2 -3.2 -3.6 -5.0 -6.3 -6.1 -5.3 -4.8 -5.2 -0.7 -3.3 -2.3 1.2 2.8 3.5 5.5 6.9 6.6 4.2 2.5 0.1 -2.9 -4.5 -5.0 -4.9 -4.3 -4.3 -4.1 -4.0 -3.6 -4.1 -4.1 -3.8
Wind_Speed
12 14 16 19 21 22 25 26 27 28 30 30 28 29 29 27 27 14 5 12 4 3 6 8 6 5 2 2 4 3 3 2 2 1 2 3 2 2 2 10 7 2 5 3 3 3 7 14 9 5 5 11 11 16
12 15 18 21 24 24 26 27 28 29 29 29 30 30 30 30 30 25 3 5 9 4 6 4 6 11 11 15 5 3 4 4 3 1 2 0 2 3 2 3 3 1 2 2 5 5 6 6 6 10 8 11 10 13
15 17 19 22 23 25 27 28 28 29 29 29 31 32 32 33 29 21 3 3 2 2 4 2 5 5 3 7 6 4 3 6 4 4 3 3 4 2 3 3 3 4 4 2 6 5 13 12 8 11 10 7 8 7
16 18 21 22 24 26 27 28 28 29 29 31 33 33 32 29 23 18 1 2 2 1 1 5 1 6 2 2 6 11 15 6 2 3 4 3 2 3 3 4 5 2 5 3 6 8 12 2 15 11 10 8 7 9
17 19 20 23 25 27 27 28 28 28 30 33 32 31 28 19 16 7 3 2 3 2 2 4 5 3 5 5 6 9 11 10 3 3 3 3 2 2 3 4 2 3 3 2 4 8 8 13 10 9 8 8 8 10
18 20 21 24 26 27 27 27 27 29 32 32 31 27 17 13 10 1 3 3 8 2 2 3 3 4 4 8 3 6 7 3 2 2 1 1 2 2 2 2 2 3 4 8 5 11 10 7 8 8 7 9 11 12
18 20 22 24 26 27 26 26 28 31 32 31 28 17 8 6 6 3 1 3 5 2 2 4 5 3 4 3 3 2 3 2 2 2 2 2 3 4 2 3 15 14 5 8 6 5 3 9 6 7 12 13 17 17
19 21 22 24 27 26 24 27 30 31 31 29 20 9 4 4 4 3 3 7 4 2 2 2 4 4 4 3 3 3 2 3 6 3 2 4 3 3 3 17 16 10 6 7 5 7 6 7 11 11 11 14 18 16
20 21 22 25 27 24 24 30 30 30 30 25 12 1 3 4 3 2 13 7 4 2 2 2 3 3 4 2 2 2 1 3 1 3 3 3 4 5 11 15 11 8 6 5 10 11 11 12 11 12 14 15 16 16
21 23 24 26 26 21 27 29 29 28 26 11 5 3 3 2 12 8 5 3 4 3 3 1 2 3 3 2 2 3 2 2 2 3 1 4 2 11 15 12 11 10 10 7 12 13 13 12 13 15 16 15 15 16
22 24 26 27 22 21 28 28 26 23 8 3 4 1 3 9 3 4 3 4 3 4 3 3 2 4 2 3 3 3 1 2 3 4 3 4 6 14 15 14 13 13 13 15 16 15 14 12 12 15 18 17 16 16
21 25 27 25 16 26 26 24 21 4 2 1 2 3 3 5 4 6 1 4 4 1 4 2 4 3 4 2 2 3 2 3 4 2 3 4 6 15 14 15 16 15 16 17 19 18 16 16 15 16 16 15 16 14
24 27 26 16 25 25 25 20 16 7 2 3 4 5 4 4 8 5 5 4 4 4 2 6 6 2 3 2 1 2 5 2 1 4 3 3 9 11 11 10 14 16 18 19 19 17 17 17 18 18 16 13 13 14
24 26 24 11 26 25 21 16 12 4 5 4 4 7 4 4 1 3 2 2 4 2 7 7 4 2 2 3 2 4 2 3 3 3 3 4 8 10 11 11 13 15 17 17 16 16 17 17 15 16 15 11 11 12
25 26 11 14 25 25 16 10 9 7 3 3 4 3 2 3 3 3 3 3 3 5 4 4 3 2 2 2 3 2 4 4 3 2 2 3 6 7 9 11 12 12 11 12 12 13 14 13 13 14 13 12 11 10
25 10 6 26 23 20 14 5 5 2 3 4 5 3 3 2 3 3 3 3 3 3 3 2 2 3 3 2 4 3 3 3 2 2 2 3 6 7 8 9 10 10 10 10 10 11 11 12 11 10 10 9 9 9
14 1 20 20 21 8 14 3 3 5 4 4 1 2 2 1 3 3 5 3 3 3 2 2 4 0 2 3 3 3 2 3 5 4 4 6 7 7 7 9 10 10 10 9 9 10 10 8 8 9 10 8 7 7
2 14 12 17 14 4 3 4 4 4 4 2 2 3 2 2 2 3 3 3 2 3 2 1 2 5 3 2 2 2 3 5 5 5 6 6 6 7 7 8 9 9 8 8 7 7 7 8 8 6 6 5 5 6
11 7 14 11 5 3 3 4 3 3 3 2 2 1 0 2 2 2 3 2 2 3 3 3 5 2 2 2 3 4 3 3 4 5 6 7 7 7 7 8 8 8 7 6 6 5 4 6 5 5 4 4 3 3
8 3 13 9 3 3 4 3 2 4 1 2 1 2 1 2 3 3 5 4 3 2 5 4 3 2 2 3 3 4 4 5 5 6 5 5 4 6 8 6 5 5 5 5 5 7 4 4 4 5 5 4 2 3
6 6 9 5 3 5 4 1 4 1 2 2 1 2 1 2 3 5 4 4 4 3 3 2 2 2 3 3 5 5 6 3 2 2 3 4 3 4 4 4 3 4 3 3 4 5 8 4 4 4 3 3 3 3
2 9 3 4 4 4 4 2 2 1 1 1 1 2 2 2 2 3 2 5 3 3 2 2 3 3 5 7 5 7 6 7 7 6 8 5 2 3 4 4 4 4 5 4 4 4 4 4 5 2 4 4 5 3
5 4 3 5 5 5 2 2 3 5 3 3 2 3 3 3 1 1 3 2 2 2 2 3 4 6 7 5 6 8 8 6 5 5 4 3 3 3 3 4 4 4 4 5 4 4 3 9 6 4 3 3 2 3
8 4 4 3 3 1 2 4 2 3 3 4 3 2 3 2 4 3 3 1 1 1 3 4 1 2 2 4 4 4 4 3 4 4 3 2 3 3 3 2 3 2 3 4 3 3 3 3 8 4 4 2 3 2
5 7 5 5 3 5 5 5 5 4 2 2 2 3 2 2 2 2 2 2 1 1 1 2 3 3 2 1 1 2 4 2 2 3 2 2 1 2 2 2 2 1 2 3 5 6 5 5 4 4 4 3 5 3
5 4 3 1 3 3 1 2 2 1 1 2 1 2 2 2 2 2 2 2 2 2 1 1 1 1 2 1 1 1 1 1 1 2 1 1 2 3 1 1 2 3 2 2 2 4 6 6 5 7 6 7 11 6
4 3 2 2 1 2 2 3 2 3 2 1 2 2 2 2 2 1 1 1 1 1 1 1 1 1 1 0 0 1 1 1 2 1 1 1 2 2 2 1 2 3 5 4 5 3 5 7 7 6 6 4 3 4
2 1 2 3 3 2 3 2 1 1 2 2 1 1 4 5 3 1 1 1 2 2 2 1 2 1 0 0 1 2 2 2 1 0 0 1 1 2 3 3 6 11 9 8 5 3 4 7 6 5 6 5 6 4
2 2 0 3 2 3 1 2 2 1 1 1 2 2 2 2 2 1 1 1 1 2 2 2 1 1 1 1 0 0 1 1 3 3 2 2 3 2 2 3 3 7 7 2 12 13 10 6 5 3 4 4 5 5
3 3 2 1 2 1 2 2 2 2 0 1 1 2 1 2 2 1 1 1 2 1 1 1 1 1 1 1 1 2 1 0 1 3 3 2 3 3 4 4 4 4 8 3 4 5 11 5 5 3 3 3 3 3
2 2 3 2 1 2 2 1 2 1 2 1 1 2 2 2 2 1 1 1 2 2 2 1 0 1 2 2 2 1 1 2 3 4 3 3 4 4 5 4 7 9 6 3 3 3 3 3 2 3 4 5 6 7
3 2 2 1 2 2 1 1 0 1 2 2 2 1 3 2 2 2 3 3 2 2 3 3 2 2 4 3 2 2 5 2 3 3 4 3 5 10 11 9 9 8 2 3 3 3 2 3 3 4 4 5 6 6
2 2 2 2 3 2 1 1 2 3 1 1 2 1 2 2 4 2 1 2 2 3 4 4 3 2 3 5 4 3 3 4 4 6 9 11 12 10 1 2 4 2 1 2 3 2 3 3 3 4 5 5 6 6
Wind_Direction
347 341 339 336 331 335 338 334 334 336 334 331 327 325 321 320 319 320 267 190 192 225 263 207 205 216 275 176 251 260 319 347 43 157 247 255 247 314 274 287 278 213 161 186 201 225 260 10 341 358 302 307 316 315
335 337 335 332 334 336 334 336 338 335 332 330 326 323 320 319 318 316 262 196 200 225 242 211 228 233 215 228 245 202 221 175 217 169 217 228 321 314 255 281 257 103 150 299 224 241 6 357 280 289 313 300 297 300
340 336 334 335 333 334 336 338 335 332 329 328 324 321 323 321 324 325 257 164 205 234 302 18 246 279 220 229 207 227 237 204 202 172 174 219 234 211 269 254 337 8 19 305 342 2 334 335 337 339 324 296 306 311
339 337 337 331 331 334 336 336 333 330 328 327 326 325 326 331 332 337 232 201 186 169 141 284 316 273 264 303 219 222 247 250 181 157 207 192 203 214 254 265 305 15 335 335 272 311 318 228 346 335 329 347 13 39
337 336 334 332 332 335 335 333 332 331 329 327 328 331 336 335 348 68 58 9 20 105 217 280 300 320 286 260 256 275 254 228 178 175 179 208 210 227 243 261 57 350 334 297 274 323 308 295 326 337 11 16 33 68
337 337 335 334 335 335 333 333 332 332 329 330 332 339 338 351 346 52 28 351 10 32 67 332 293 312 296 304 287 337 354 69 122 103 87 297 335 271 10 19 171 320 242 261 275 295 281 291 2 14 56 53 64 74
335 334 338 337 335 335 335 335 334 331 330 331 338 340 344 33 45 66 33 244 23 60 61 328 326 288 304 306 337 342 4 24 23 58 40 351 353 11 52 356 329 314 295 316 287 323 339 21 48 39 66 71 76 70
335 343 339 337 338 336 336 338 335 333 330 333 338 338 13 100 80 22 347 13 30 86 53 40 297 338 360 331 325 339 19 19 14 36 31 6 5 357 32 331 319 322 336 350 27 75 77 65 59 57 68 78 80 79
342 340 341 341 338 336 337 338 336 334 331 335 336 67 45 35 37 279 330 64 63 102 103 67 327 302 352 301 304 300 356 63 41 32 17 42 10 30 323 325 334 1 11 47 68 68 70 70 72 74 75 74 81 82
339 341 343 342 338 338 341 339 338 336 333 343 30 50 6 298 311 318 11 16 12 339 27 80 297 287 324 309 303 312 17 43 51 35 20 28 62 352 350 343 12 20 40 54 70 66 73 69 72 72 72 72 74 76
339 340 345 343 339 343 344 342 341 341 3 24 22 18 251 336 48 28 31 57 333 19 0 332 359 322 308 327 321 12 60 11 49 7 38 23 5 348 344 13 20 33 51 60 66 63 61 66 75 77 72 70 72 74
337 342 343 346 348 347 345 344 347 25 185 313 310 57 22 29 27 70 338 336 40 346 325 353 315 290 292 318 330 356 81 39 50 330 47 17 345 341 355 12 22 31 43 52 55 56 53 58 64 68 70 69 66 67
335 339 346 351 351 348 347 348 355 357 105 40 39 49 35 326 34 55 348 327 341 343 343 330 322 293 285 350 323 18 68 75 62 40 48 17 330 348 359 9 30 34 38 42 45 47 51 55 52 54 58 55 65 64
331 338 347 344 349 346 348 352 3 47 64 66 56 24 70 357 8 250 220 253 262 283 313 310 281 301 356 342 347 70 24 71 67 49 38 353 346 352 3 17 36 33 35 39 40 43 47 49 51 50 50 49 57 59
333 341 348 341 344 343 347 359 28 48 73 69 55 34 358 232 248 258 264 319 273 284 288 299 287 305 336 28 18 63 44 62 55 58 52 357 359 9 24 29 35 37 37 39 37 42 44 44 47 47 38 40 46 53
338 1 350 338 337 345 348 39 37 73 51 68 50 28 286 49 310 325 294 282 281 316 287 237 326 38 26 27 44 27 78 75 106 77 81 46 34 31 37 41 42 41 40 42 40 43 43 41 41 44 42 36 39 45
351 347 327 329 336 345 20 68 53 45 104 54 336 233 221 248 248 265 290 279 307 292 314 75 55 32 320 50 49 17 50 93 109 92 74 60 51 42 41 50 46 44 42 40 41 40 42 37 42 45 44 24 33 38
248 318 331 333 339 17 39 37 82 73 59 246 96 276 280 250 273 307 296 294 301 332 41 105 66 44 35 48 52 78 79 79 72 79 72 55 51 52 54 54 48 45 47 43 38 38 35 35 40 37 31 17 28 23
331 352 341 344 17 84 69 15 50 108 206 215 265 338 321 304 294 285 310 319 25 28 75 42 57 45 28 4 72 97 98 104 108 91 70 46 43 50 55 56 53 46 40 27 30 33 27 30 28 12 10 23 23 355
354 337 356 20 34 79 53 358 55 93 151 249 41 25 338 34 322 343 17 26 35 55 40 45 27 12 350 337 19 70 101 116 116 100 82 58 46 51 49 45 43 40 37 22 18 45 24 19 20 12 358 15 11 341
12 345 360 39 40 63 88 1 35 105 259 88 322 18 358 335 10 7 9 10 53 37 65 21 21 26 22 36 39 51 47 58 70 77 117 106 66 63 54 37 25 44 43 26 21 5 22 8 339 353 351 336 333 326
330 2 39 10 72 23 78 312 134 259 76 236 32 12 44 16 358 21 10 40 55 19 12 15 9 26 58 44 32 34 45 60 57 75 74 93 72 51 42 31 33 24 25 19 7 356 344 326 326 19 356 335 352 329
12 29 36 27 67 41 282 39 62 356 74 322 10 46 18 3 344 6 67 53 74 8 355 34 41 52 71 55 59 48 36 58 64 56 63 66 61 59 62 47 34 29 16 4 356 340 327 347 335 358 337 341 329 335
37 49 50 50 52 212 6 16 29 39 38 28 38 30 3 329 325 63 75 53 68 18 32 31 27 81 60 45 50 44 23 34 81 63 30 60 75 35 20 41 40 28 10 321 312 312 324 331 353 335 328 318 323 315
64 340 59 352 330 51 33 11 351 44 52 333 60 355 335 340 69 69 103 151 127 82 50 39 67 67 103 84 73 60 28 29 69 81 15 38 84 33 26 19 12 317 335 353 358 345 333 325 325 324 322 311 312 319
70 312 69 251 323 82 186 52 27 198 125 24 262 276 5 83 81 151 176 150 149 169 164 148 134 114 70 57 125 68 18 15 73 112 198 102 94 109 108 17 336 312 356 327 319 315 324 322 318 321 319 329 340 348
58 325 332 27 120 97 64 41 46 95 83 148 280 13 57 86 209 196 129 84 131 131 88 74 67 107 131 141 15 44 336 174 227 182 95 225 212 195 141 106 317 287 310 323 318 288 307 314 308 307 303 300 289 294
131 39 39 318 51 13 121 57 80 156 238 248 89 29 159 188 200 119 88 103 103 107 95 73 45 35 70 106 348 336 339 344 12 171 227 315 277 261 242 262 289 320 338 315 305 300 302 300 298 302 315 317 317 314
48 359 113 21 18 40 111 152 209 252 349 137 148 234 244 241 229 181 133 115 121 142 149 167 175 18 64 66 340 299 352 25 89 64 63 300 335 307 249 297 302 309 308 300 325 335 319 321 334 321 314 314 313 311
329 350 80 62 77 325 254 186 226 248 231 172 268 327 309 297 258 239 177 159 184 189 152 136 96 101 149 141 301 327 308 311 88 130 160 222 240 276 306 302 306 299 301 298 301 308 331 349 337 346 348 342 338 337
342 49 67 59 196 253 234 258 337 38 37 17 338 153 241 289 297 232 193 164 124 107 119 124 232 193 152 174 162 130 307 263 216 230 225 238 261 270 273 268 279 278 280 285 296 297 292 318 307 325 337 350 342 357
20 82 119 28 295 290 49 71 321 34 331 23 294 354 339 26 284 266 189 128 114 162 218 161 163 242 213 228 238 246 253 212 223 220 238 268 274 274 278 279 281 279 281 290 299 295 293 306 316 336 336 342 341 339
34 42 42 59 9 343 303 68 4 337 349 339 287 225 228 203 235 262 308 204 167 182 192 200 214 224 220 217 220 242 262 239 269 282 307 306 309 312 54 208 283 249 278 309 317 325 328 330 318 336 345 344 335 331